15 daagse weersverwachting Badalona (ES)

  • Overzicht
  • Per uur
  • 15 dagen
  • Extra
  • Vergelijk
  • Kaarten
  • Dagkaart
  • Meer »
  • Info
  • Statistieken
  • Directe link
    Temp 6h Neerslag Wind  
 08:14     17:49    Daglengte: 9:35 Vandaag
07:00
 
2
13:00
12°
 
2
19:00
10°
 
2
 08:14     17:50    Daglengte: 9:36 Morgen
01:00
 
3
07:00
2.8 mm
8
13:00
10°
 
9
19:00
 
9
 08:13     17:51    Daglengte: 9:38 Maandag 20 Jan
01:00
 
10
07:00
 
11
13:00
11.4 mm
11
19:00
28.7 mm
12
 08:13     17:53    Daglengte: 9:40 Dinsdag 21 Jan
01:00
51.1 mm
11
Locatie info
Region: Catalu˝a
Latitude: 41.4505°N
Longitude: 2.2449°E
16 masl
Postcode: 08911
Temp/Neerslag /Baro Onweer/Dauwpunt
    Temp Baro 1h Neerslag Dauwpunt Wind UV Bewolking  
 08:14     17:49    Daglengte: 9:35 Vandaag
07:00
Voelt als: 6.6°
1029.9 hPa
23%
5.1°
2
Windvlaag: 0.1 km/h
75%
08:00
Voelt als: 7.2°
1030.0 hPa
67%
5.4°
1
Windvlaag: 0.3 km/h
73%
09:00
Voelt als: 7.4°
1030.4 hPa
74%
5.6°
1
Windvlaag: 0.3 km/h
86%
10:00
Voelt als: 8.5°
1030.3 hPa
74%
6.0°
1
Windvlaag: 0.4 km/h
74%
11:00
10°
1030.2 hPa
74%
5.9°
1
Windvlaag: 0.3 km/h
52%
12:00
11°
1029.4 hPa
66%
6.1°
1
Windvlaag: 0.2 km/h
37%
13:00
12°
1028.0 hPa
20%
6.7°
2
Windvlaag: 0.4 km/h
21%
14:00
12°
1026.5 hPa
15%
7.0°
2
Windvlaag: 1.2 km/h
13%
15:00
13°
1025.3 hPa
16%
7.3°
3
Windvlaag: 1.2 km/h
5%
16:00
12°
1024.6 hPa
14%
6.9°
2
Windvlaag: 1.7 km/h
11%
17:00
12°
1023.8 hPa
14%
6.9°
2
Windvlaag: 1.8 km/h
4%
18:00
11°
1023.5 hPa
14%
6.3°
2
Windvlaag: 1.9 km/h
20%
19:00
10°
1023.1 hPa
14%
5.9°
2
Windvlaag: 1.5 km/h
49%
20:00
10°
1022.9 hPa
14%
6.0°
1
Windvlaag: 0.8 km/h
64%
21:00
10°
1022.4 hPa
14%
6.2°
1
Windvlaag: -0.1 km/h
71%
22:00
Voelt als: 8.8°
1021.9 hPa
14%
6.2°
1
Windvlaag: -0.3 km/h
83%
23:00
Voelt als: 8.3°
1021.6 hPa
16%
6.3°
2
Windvlaag: -0.1 km/h
86%
 08:14     17:50    Daglengte: 9:36 Morgen
00:00
Voelt als: 7.9°
1021.1 hPa
21%
5.9°
3
Windvlaag: -0.3 km/h
86%
01:00
Voelt als: 7.7°
1020.9 hPa
64%
5.9°
3
Windvlaag: -0.1 km/h
82%
02:00
10°
Voelt als: 7.4°
1020.4 hPa
66%
6.2°
4
Windvlaag: -0.6 km/h
76%
03:00
10°
Voelt als: 7.2°
1019.9 hPa
68%
6.6°
5
Windvlaag: -1.3 km/h
91%
04:00
10°
Voelt als: 6.6°
1019.5 hPa
74%
7.1°
6
Windvlaag: -2.2 km/h
91%
05:00
Voelt als: 5.1°
1019.3 hPa 0.7 mm
80%
5.2°
8
Windvlaag: -2 km/h
91%
06:00
Voelt als: 4.5°
1019.5 hPa 1.1 mm
82%
4.3°
8
Windvlaag: -2.1 km/h
88%
07:00
Voelt als: 4.2°
1019.6 hPa 1.0 mm
82%
3.6°
8
Windvlaag: -1.9 km/h
84%
08:00
Voelt als: 4.4°
1019.9 hPa
81%
2.7°
7
Windvlaag: -1.3 km/h
87%
09:00
Voelt als: 4.5°
1020.3 hPa
74%
1.9°
7
Windvlaag: -0.8 km/h
90%
10:00
Voelt als: 4.9°
1020.7 hPa
67%
1.4°
8
Windvlaag: -1.1 km/h
88%
11:00
Voelt als: 5.6°
1021.3 hPa
17%
1.1°
9
Windvlaag: -1.9 km/h
89%
12:00
10°
Voelt als: 6.0°
1021.2 hPa
14%
1.1°
10
Windvlaag: -1.8 km/h
83%
13:00
10°
1020.9 hPa
14%
0.9°
9
Windvlaag: -1.3 km/h
90%
14:00
10°
1020.7 hPa
14%
-0.0°
9
Windvlaag: -1.2 km/h
90%
15:00
10°
1021.0 hPa
18%
-1.1°
9
Windvlaag: -1.2 km/h
90%
16:00
10°
Voelt als: 6.4°
1021.4 hPa
17%
-2.4°
9
Windvlaag: -0.6 km/h
91%
17:00
10°
Voelt als: 5.9°
1021.8 hPa
14%
-3.0°
9
Windvlaag: -1.4 km/h
91%
18:00
Voelt als: 5.5°
1022.3 hPa
14%
-3.4°
9
Windvlaag: -1.9 km/h
90%
19:00
Voelt als: 5.3°
1022.5 hPa
14%
-3.6°
9
Windvlaag: -1.8 km/h
91%
20:00
Voelt als: 5.1°
1023.1 hPa
14%
-3.7°
9
Windvlaag: -1.8 km/h
89%
21:00
Voelt als: 4.6°
1023.5 hPa
14%
-3.6°
9
Windvlaag: -1.5 km/h
85%
22:00
Voelt als: 4.3°
1023.8 hPa
14%
-3.4°
9
Windvlaag: -1.8 km/h
89%
23:00
Voelt als: 4.2°
1023.8 hPa
14%
-3.7°
9
Windvlaag: -2.2 km/h
90%
 08:13     17:51    Daglengte: 9:38 Maandag 20 Jan
00:00
Voelt als: 4.2°
1023.8 hPa
14%
-3.5°
10
Windvlaag: -2 km/h
91%
01:00
Voelt als: 4.4°
1023.7 hPa
14%
-2.4°
10
Windvlaag: -3 km/h
91%
02:00
Voelt als: 4.8°
1023.5 hPa
17%
-1.4°
9
Windvlaag: -3.6 km/h
91%
03:00
Voelt als: 4.8°
1023.4 hPa
15%
-1.2°
10
Windvlaag: -3.5 km/h
90%
04:00
Voelt als: 4.7°
1022.8 hPa
26%
-1.5°
9
Windvlaag: -3.8 km/h
100%
05:00
Voelt als: 4.3°
1022.9 hPa
34%
-2.3°
10
Windvlaag: -3.4 km/h
99%
06:00
Voelt als: 4.2°
1022.8 hPa
34%
-2.2°
10
Windvlaag: -3.3 km/h
98%
07:00
Voelt als: 3.9°
1023.3 hPa
84%
-2.2°
11
Windvlaag: -3.2 km/h
99%
08:00
Voelt als: 3.4°
1023.9 hPa
88%
-2.0°
11
Windvlaag: -4.4 km/h
98%
09:00
Voelt als: 2.7°
1024.5 hPa 1.6 mm
97%
-0.7°
10
Windvlaag: -3.3 km/h
99%
10:00
Voelt als: 2.3°
1025.3 hPa 1.8 mm
100%
-0.1°
10
Windvlaag: -3.6 km/h
99%
11:00
Voelt als: 1.9°
1026.0 hPa 2.5 mm
100%
0.4°
11
Windvlaag: -3.5 km/h
95%
12:00
Voelt als: 2.3°
1025.7 hPa 2.6 mm
100%
1.5°
11
Windvlaag: -4 km/h
93%
13:00
Voelt als: 2.9°
1024.9 hPa 2.9 mm
100%
3.7°
11
Windvlaag: -4 km/h
98%
14:00
Voelt als: 2.8°
1024.3 hPa 3.5 mm
100%
4.0°
11
Windvlaag: -4 km/h
97%
15:00
Voelt als: 2.7°
1024.0 hPa 4.4 mm
100%
4.3°
11
Windvlaag: -3.6 km/h
100%
16:00
Voelt als: 2.7°
1024.1 hPa 5.0 mm
100%
4.4°
12
Windvlaag: -3.1 km/h
100%
17:00
Voelt als: 3.4°
1023.9 hPa 5.6 mm
100%
5.1°
12
Windvlaag: -4 km/h
100%
18:00
Voelt als: 2.2°
1024.1 hPa 5.7 mm
100%
4.3°
11
Windvlaag: -4 km/h
100%
19:00
Voelt als: 2.0°
1024.4 hPa 4.5 mm
100%
3.9°
12
Windvlaag: -4.2 km/h
100%
20:00
Voelt als: 2.3°
1024.5 hPa 6.5 mm
100%
4.3°
12
Windvlaag: -9 km/h
99%
21:00
Voelt als: 2.7°
1024.5 hPa 7.8 mm
100%
4.7°
11
Windvlaag: -9.1 km/h
100%
22:00
Voelt als: 3.1°
1024.6 hPa 9.4 mm
100%
5.3°
11
Windvlaag: -10.6 km/h
100%
23:00
Voelt als: 3.6°
1024.6 hPa 9.7 mm
100%
5.9°
11
Windvlaag: -10.5 km/h
100%
 08:13     17:53    Daglengte: 9:40 Dinsdag 21 Jan
00:00
Voelt als: 4.1°
1024.4 hPa 9.1 mm
100%
6.5°
11
Windvlaag: -11 km/h
100%
01:00
Voelt als: 4.6°
1023.8 hPa 8.7 mm
100%
6.9°
11
Windvlaag: -6.1 km/h
100%
02:00
11°
1024.3 hPa 17.0 mm
100%
8.6°
11
Windvlaag: 16.8 km/h
100% warningclass
03:00
11°
1024.4 hPa 16.9 mm
100%
8.8°
12
Windvlaag: 16.8 km/h
100% warningclass
04:00
11°
1024.3 hPa 17.3 mm
100%
8.9°
12
Windvlaag: 18 km/h
100% warningclass
05:00
11°
1024.1 hPa 18.2 mm
100%
9.1°
12
Windvlaag: 18.5 km/h
100% warningclass
06:00
11°
1024.0 hPa 19.2 mm
100%
9.3°
12
Windvlaag: 19.1 km/h
100% warningclass
Temp/Neerslag /Baro Onweer/Dauwpunt
    Temp Baro Neerslag Dauwpunt Wind Bewolking  
 08:14     17:49    Daglengte: 9:35 Vandaag
07:00
Voelt als: 6.6°
1029.9 hPa   5.1°
2
75%
10:00
Voelt als: 8.5°
1030.3 hPa   6.0°
1
74%
13:00
12°
1028.0 hPa   6.7°
2
21%
16:00
12°
1024.6 hPa   6.9°
2
11%
19:00
10°
1023.1 hPa   5.9°
2
49%
22:00
Voelt als: 8.8°
1021.9 hPa   6.2°
1
83%
 08:14     17:50    Daglengte: 9:36 Morgen
01:00
Voelt als: 7.7°
1020.9 hPa   5.9°
3
82%
04:00
10°
Voelt als: 6.6°
1019.5 hPa   7.1°
6
91%
07:00
Voelt als: 4.2°
1019.6 hPa 2.8 mm 3.6°
8
84%
10:00
Voelt als: 4.9°
1020.7 hPa   1.4°
8
88%
13:00
10°
1020.9 hPa   0.9°
9
90%
16:00
10°
Voelt als: 6.4°
1021.4 hPa   -2.4°
9
91%
19:00
Voelt als: 5.3°
1022.5 hPa   -3.6°
9
91%
22:00
Voelt als: 4.3°
1023.8 hPa   -3.4°
9
89%
 08:13     17:51    Daglengte: 9:38 Maandag 20 Jan
01:00
Voelt als: 4.4°
1023.7 hPa   -2.4°
10
91%
04:00
Voelt als: 4.7°
1022.8 hPa   -1.5°
9
100%
07:00
Voelt als: 3.9°
1023.3 hPa   -2.2°
11
99%
10:00
Voelt als: 2.3°
1025.3 hPa 3.4 mm -0.1°
10
99%
13:00
Voelt als: 2.9°
1024.9 hPa 8.0 mm 3.7°
11
98%
16:00
Voelt als: 2.7°
1024.1 hPa 12.8 mm 4.4°
12
100%
19:00
Voelt als: 2.0°
1024.4 hPa 15.8 mm 3.9°
12
100%
22:00
Voelt als: 3.1°
1024.6 hPa 23.7 mm 5.3°
11
100%
 08:13     17:53    Daglengte: 9:40 Dinsdag 21 Jan
01:00
Voelt als: 4.6°
1023.8 hPa 27.4 mm 6.9°
11
100%
04:00
11°
1024.3 hPa 51.3 mm 8.9°
12
100% warningclass
07:00
11°
1023.8 hPa 55.9 mm 9.6°
12
99% warningclass
10:00
11°
1023.6 hPa 80.7 mm 9.3°
11
92%
13:00
11°
1023.3 hPa 84.1 mm 9.6°
11
92%
16:00
12°
1022.6 hPa 87.9 mm 9.8°
11
91%
19:00
12°
1022.0 hPa 95.5 mm 10.0°
10
90%
22:00
11°
1021.9 hPa 109.0 mm 9.8°
8
91%
 08:12     17:54    Daglengte: 9:42 Woensdag 22 Jan
01:00
11°
1021.8 hPa 117.0 mm 9.5°
6
92%
04:00
10°
1021.2 hPa 121.6 mm 8.4°
4
47%
07:00
Voelt als: 7.6°
1020.6 hPa 125.1 mm 7.2°
3
3%
10:00
11°
1020.9 hPa 127.7 mm 8.6°
3
47%
13:00
13°
1021.1 hPa 129.5 mm 9.8°
3
91%
16:00
13°
1019.9 hPa 133.6 mm 10.3°
4
90%
19:00
12°
1018.8 hPa 136.4 mm 10.7°
5
90%
22:00
11°
1020.0 hPa 138.6 mm 9.6°
4
51%
 08:11     17:55    Daglengte: 9:44 Donderdag 23 Jan
01:00
Voelt als: 8.1°
1021.0 hPa 138.6 mm 8.5°
2
13%
04:00
Voelt als: 7.9°
1021.4 hPa 138.6 mm 7.5°
2
20%
07:00
Voelt als: 7.7°
1021.8 hPa 138.6 mm 6.5°
2
28%
10:00
11°
1022.2 hPa 138.6 mm 7.8°
2
22%
13:00
14°
1022.5 hPa 138.6 mm 9.1°
3
17%
16:00
13°
1022.1 hPa 138.6 mm 9.5°
2
8%
19:00
12°
1021.9 hPa 138.6 mm 9.8°
1
0%
22:00
Voelt als: 9.1°
1022.2 hPa 138.6 mm 6.8°
1
12%
 08:10     17:56    Daglengte: 9:46 Vrijdag 24 Jan
01:00
Voelt als: 5.2°
1022.5 hPa 138.6 mm 3.8°
2
23%
04:00
Voelt als: 4.1°
1021.9 hPa 138.6 mm 2.8°
2
17%
07:00
Voelt als: 2.9°
1021.5 hPa 138.6 mm 1.8°
2
10%
10:00
Voelt als: 8.1°
1021.7 hPa 138.6 mm 4.2°
2
16%
13:00
14°
1021.9 hPa 138.6 mm 6.3°
3
22%
16:00
12°
1021.7 hPa 138.6 mm 7.2°
2
32%
19:00
10°
Voelt als: 8.9°
1021.8 hPa 138.6 mm 7.6°
2
42%
22:00
Voelt als: 6.4°
1022.5 hPa 138.6 mm 5.6°
2
21%
 08:10     17:57    Daglengte: 9:47 Zaterdag 25 Jan
01:00
Voelt als: 3.8°
1023.2 hPa 138.6 mm 3.6°
2
0%
04:00
Voelt als: 3.1°
1023.1 hPa   2.8°
2
32%
07:00
Voelt als: 2.4°
1023.0 hPa 277.1 mm 1.9°
2
64%
13:00
12°
1024.0 hPa 277.1 mm 6.4°
2
89%
19:00
Voelt als: 8.1°
1023.7 hPa 277.1 mm 6.5°
1
91%
 08:09     17:59    Daglengte: 9:50 Zondag 26 Jan
01:00
Voelt als: 4.0°
1024.6 hPa 277.4 mm 3.9°
1
85%
07:00
Voelt als: 4.4°
1025.2 hPa 278.3 mm 3.9°
2
87%
13:00
13°
1026.5 hPa 278.5 mm 7.3°
2
82%
19:00
Voelt als: 8.1°
1025.1 hPa 278.5 mm 6.8°
2
0%
 08:08     18:00    Daglengte: 9:52 Maandag 27 Jan
01:00
Voelt als: 4.3°
1025.8 hPa 278.5 mm 3.8°
2
0%
07:00
Voelt als: 2.9°
1025.0 hPa 278.5 mm 2.6°
2
24%
13:00
16°
1026.9 hPa 278.5 mm 7.6°
1
1%
19:00
16°
1024.7 hPa 278.6 mm 9.0°
2
1%
 08:07     18:01    Daglengte: 9:54 Dinsdag 28 Jan
01:00
11°
1022.2 hPa 0.2 mm 8.7°
1
28%
07:00
11°
1021.2 hPa 0.1 mm 7.6°
2
29%
13:00
14°
1021.6 hPa   8.7°
1
27%
19:00
12°
1020.5 hPa   9.2°
2
22%
 08:06     18:02    Daglengte: 9:56 Woensdag 29 Jan
01:00
11°
1020.9 hPa   8.1°
2
27%
07:00
11°
1019.5 hPa   7.4°
2
30%
13:00
14°
1019.1 hPa 0.3 mm 8.8°
3
38%
19:00
12°
1018.0 hPa 0.2 mm 9.1°
4
37%
 08:05     18:04    Daglengte: 9:59 Donderdag 30 Jan
01:00
12°
1018.2 hPa 0.1 mm 8.1°
3
36%
07:00
11°
1016.7 hPa 1.1 mm 7.3°
2
44%
13:00
14°
1017.3 hPa 0.3 mm 8.3°
3
45%
19:00
12°
1017.4 hPa   8.1°
2
31%
 08:04     18:05    Daglengte: 10:01 Vrijdag 31 Jan
01:00
11°
1018.5 hPa 0.2 mm 7.1°
1
31%
07:00
10°
1017.6 hPa 0.3 mm 6.3°
2
38%
13:00
13°
1018.2 hPa 0.6 mm 6.7°
1
42%
19:00
11°
1017.8 hPa 0.4 mm 7.2°
1
40%
 08:03     18:06    Daglengte: 10:03 Zaterdag 01 Feb
01:00
10°
1018.9 hPa 0.2 mm 6.3°
2
38%
07:00
10°
Voelt als: 8.8°
1018.5 hPa 0.3 mm 5.5°
2
32%
13:00
13°
1019.6 hPa   6.1°
2
34%
19:00
11°
1019.9 hPa   6.9°
2
28%
 08:02     18:07    Daglengte: 10:05 Zondag 02 Feb
01:00
10°
1022.0 hPa 0.1 mm 6.1°
2
28%
  CAPE Lifted Index Hail Supercell Tornado SRH 3km CL BTM PRES CL TOP PRES Swiss DWD icon SMHI TS
 08:14     17:49    Daglengte: 9:35 Vandaag
07:00 11 J/kg 5.2 K 0 % 0 % 0 % 0 m²/s² 0 0 8.71 3
08:00 8 J/kg 5.7 K 0 % 0 % 0 % 0 m²/s² 0 0 7.47 80
09:00 0 J/kg 5.9 K 0 % 0 % 0 % 0 m²/s² 0 0 8.6 80
10:00 1 J/kg 6.4 K 0 % 0 % 0 % 0 m²/s² 0 0 7.78 80
11:00 0 J/kg 6.5 K 0 % 0 % 0 % 0 m²/s² 0 0 9.2 2
12:00 0 J/kg 6.6 K 0 % 0 % 0 % 0 m²/s² 0 0 9.21 2
13:00 3 J/kg 6.3 K 0 % 0 % 0 % 0 m²/s² 0 0 8.58 3
14:00 27 J/kg 6.1 K 0 % 0 % 0 % 0 m²/s² 0 0 7.27 2
15:00 17 J/kg 5.8 K 0 % 0 % 0 % 0 m²/s² 0 0 7.36 2
16:00 5 J/kg 6.7 K 0 % 0 % 0 % 0 m²/s² 0 0 8.26 1
17:00 2 J/kg 7.1 K 0 % 0 % 0 % 0 m²/s² 0 0 8.51 2
18:00 0 J/kg 7.5 K 0 % 0 % 0 % 0 m²/s² 0 0 8.49 1
19:00 0 J/kg 7.9 K 0 % 0 % 0 % 0 m²/s² 0 0 8.53 1
20:00 0 J/kg 7.3 K 0 % 0 % 0 % 0 m²/s² 0 0 7.84 1
21:00 0 J/kg 6.1 K 0 % 0 % 0 % 0 m²/s² 0 0 6.34 3
22:00 0 J/kg 6.1 K 0 % 0 % 0 % 0 m²/s² 0 0 6.4 3
23:00 0 J/kg 5.5 K 0 % 0 % 0 % 0 m²/s² 0 0 5.86 3
 08:14     17:50    Daglengte: 9:36 Morgen
00:00 0 J/kg 4.2 K 0 % 0 % 0 % 0 m²/s² 0 0 4.44 3
01:00 0 J/kg 3.6 K 0 % 0 % 0 % 0 m²/s² 0 0 4.05 3
02:00 0 J/kg 2.9 K 0 % 0 % 0 % 0 m²/s² 0 0 3.32 3
03:00 0 J/kg 2.3 K 0 % 0 % 0 % 0 m²/s² 0 0 2.63 3
04:00 5 J/kg 2.6 K 0 % 0 % 0 % 0 m²/s² 0 0 2.87 3
05:00 0 J/kg 3.2 K 0 % 0 % 0 % 0 m²/s² 0 0 3.44 61
06:00 0 J/kg 3.5 K 0 % 0 % 0 % 0 m²/s² 0 0 3.83 61
07:00 0 J/kg 3.7 K 0 % 0 % 0 % 0 m²/s² 0 0 3.97 61
08:00 0 J/kg 4.1 K 0 % 0 % 0 % 0 m²/s² 0 0 4.37 61
09:00 0 J/kg 4.6 K 0 % 0 % 0 % 0 m²/s² 0 0 4.84 61
10:00 0 J/kg 5.4 K 0 % 0 % 0 % 0 m²/s² 0 0 5.55 3
11:00 0 J/kg 6.4 K 0 % 0 % 0 % 0 m²/s² 0 0 6.64 3
12:00 1 J/kg 8.5 K 0 % 0 % 0 % 0 m²/s² 0 0 8.74 3
13:00 0 J/kg 6.6 K 0 % 0 % 0 % 0 m²/s² 0 0 6.84 3
14:00 0 J/kg 8.5 K 0 % 0 % 0 % 0 m²/s² 0 0 8.83 3
15:00 0 J/kg 8.5 K 0 % 0 % 0 % 0 m²/s² 0 0 8.77 3
16:00 0 J/kg 8.3 K 0 % 0 % 0 % 0 m²/s² 0 0 8.75 3
17:00 0 J/kg 8.3 K 0 % 0 % 0 % 0 m²/s² 0 0 8.78 3
18:00 0 J/kg 9.4 K 0 % 0 % 0 % 0 m²/s² 0 0 9.97 3
19:00 0 J/kg 10.0 K 0 % 0 % 0 % 0 m²/s² 0 0 10.57 3
20:00 0 J/kg 10.2 K 0 % 0 % 0 % 0 m²/s² 0 0 10.83 3
21:00 0 J/kg 10.5 K 0 % 0 % 0 % 0 m²/s² 0 0 11.19 3
22:00 0 J/kg 10.6 K 0 % 0 % 0 % 0 m²/s² 0 0 11.08 3
23:00 0 J/kg 9.9 K 0 % 0 % 0 % 0 m²/s² 0 0 10.35 3
 08:13     17:51    Daglengte: 9:38 Maandag 20 Jan
00:00 0 J/kg 8.7 K 0 % 0 % 0 % 0 m²/s² 0 0 9.18 3
01:00 0 J/kg 8.5 K 0 % 0 % 0 % 0 m²/s² 0 0 9.01 3
02:00 0 J/kg 9.2 K 0 % 0 % 0 % 0 m²/s² 0 0 9.8 3
03:00 0 J/kg 9.3 K 0 % 0 % 0 % 0 m²/s² 0 0 10.08 3
04:00 1 J/kg 9.5 K 0 % 0 % 0 % 0 m²/s² 0 0 10.31 3
05:00 0 J/kg 9.6 K 0 % 0 % 0 % 0 m²/s² 0 0 10.41 3
06:00 0 J/kg 9.8 K 0 % 0 % 0 % 0 m²/s² 0 0 10.61 3
07:00 0 J/kg 9.2 K 0 % 0 % 0 % 0 m²/s² 0 0 9.89 3
08:00 0 J/kg 8.7 K 0 % 0 % 0 % 0 m²/s² 0 0 9.36 3
09:00 0 J/kg 8.7 K 0 % 0 % 0 % 0 m²/s² 0 0 9.51 61
10:00 0 J/kg 8.9 K 0 % 0 % 0 % 0 m²/s² 0 0 9.83 61
11:00 1 J/kg 8.9 K 0 % 0 % 0 % 0 m²/s² 0 0 9.77 63
12:00 1 J/kg 8.8 K 0 % 0 % 0 % 0 m²/s² 0 0 9.4 61
13:00 8 J/kg 8.2 K 0 % 0 % 0 % 0 m²/s² 0 0 8.8 61
14:00 15 J/kg 7.8 K 0 % 0 % 0 % 0 m²/s² 0 0 8.46 61
15:00 21 J/kg 7.0 K 0 % 0 % 0 % 0 m²/s² 0 0 7.36 63
16:00 29 J/kg 6.2 K 0 % 0 % 0 % 0 m²/s² 0 0 6.56 63
17:00 36 J/kg 5.9 K 0 % 0 % 0 % 0 m²/s² 0 0 6.35 63
18:00 20 J/kg 6.3 K 0 % 0 % 0 % 0 m²/s² 0 0 6.84 63
19:00 17 J/kg 5.8 K 0 % 0 % 0 % 0 m²/s² 0 0 6.28 63
20:00 13 J/kg 4.2 K 0 % 0 % 0 % 0 m²/s² 0 0 4.47 63
21:00 2 J/kg 3.6 K 0 % 0 % 0 % 0 m²/s² 0 0 3.84 63
22:00 10 J/kg 1.7 K 0 % 0 % 0 % 0 m²/s² 0 0 2.18 63
23:00 55 J/kg 0.8 K 0 % 0 % 0 % 0 m²/s² 0 0 1.13 63
 08:13     17:53    Daglengte: 9:40 Dinsdag 21 Jan
00:00 73 J/kg 0.3 K 0 % 0 % 0 % 0 m²/s² 0 0 0.69 63
01:00 0 J/kg 1.3 K 0 % 0 % 0 % 0 m²/s² 0 0 1.3 61
02:00 1089 J/kg -4.0 K 0 % 0 % 0 % 0 m²/s² 0 0 -3.55 81
03:00 1078 J/kg -3.8 K 0 % 0 % 0 % 0 m²/s² 0 0 -3.47 80
04:00 1049 J/kg -3.6 K 0 % 0 % 0 % 0 m²/s² 0 0 -3.33 80
05:00 952 J/kg -3.4 K 0 % 0 % 0 % 0 m²/s² 0 0 -3.01 95
06:00 886 J/kg -3.0 K 0 % 0 % 0 % 0 m²/s² 0 0 -2.22 95
Temp Baro Wind Neerslag
  EWN Forecast EWN WRFDA DWD ICON FMI HIRLAM MET Norway GFS
 08:14     17:49    Daglengte: 9:35 Vandaag
07:00 7.5° 1029.9 hPa 1.7 m/s 0.0 mm 10.9° 1028.5 hPa 1.4 m/s 0.0 mm 9.4° 1029.8 hPa 1.1 m/s -1.9 mm 5.6° 1031.4 hPa 2.2 m/s 0.0 mm 7.6° 1029.8 hPa 1.7 m/s 10.8° 1030.4 hPa 2.1 m/s
10:00 8.9° 1030.3 hPa 1.4 m/s 0.0 mm 10.3° 1029.7 hPa 2.8 m/s 0.9 mm 9.2° 1030.0 hPa 1.3 m/s 0.6 mm 8.1° 1031.4 hPa 1.3 m/s 0.0 mm 9.7° 1030.3 hPa 1.8 m/s 10.7° 1030.4 hPa 1.7 m/s
13:00 11.8° 1028.0 hPa 1.9 m/s 0.0 mm 11.6° 1028.0 hPa 3.6 m/s 1.9 mm 11.8° 1028.1 hPa 0.5 m/s 0.1 mm 12.6° 1028.8 hPa 2.7 m/s 0.0 mm 12.0° 1028.0 hPa 2.0 m/s 12.5° 1028.1 hPa 1.4 m/s
16:00 12.4° 1024.6 hPa 2.2 m/s 0.0 mm 13.5° 1024.0 hPa 3.4 m/s 2.3 mm 12.2° 1024.9 hPa 2.1 m/s 0.0 mm 13.2° 1024.7 hPa 2.5 m/s 0.0 mm 11.9° 1024.7 hPa 1.4 m/s 13.1° 1024.5 hPa 3.8 m/s
19:00 10.3° 1023.1 hPa 1.6 m/s 0.0 mm 12.3° 1023.1 hPa 1.9 m/s 2.4 mm 11.2° 1023.5 hPa 1.1 m/s 0.0 mm 12.3° 1023.2 hPa 3.5 m/s 0.0 mm 9.1° 1023.1 hPa 1.5 m/s 12.2° 1023.9 hPa 2.8 m/s
22:00 9.2° 1021.9 hPa 1.5 m/s 0.0 mm 11.4° 1022.5 hPa 1.4 m/s 2.5 mm 9.7° 1022.1 hPa 1.3 m/s 0.0 mm 11.2° 1021.0 hPa 2.0 m/s 0.0 mm 8.6° 1022.0 hPa 1.6 m/s 11.5° 1022.2 hPa 0.5 m/s
 08:14     17:50    Daglengte: 9:36 Morgen
01:00 9.4° 1020.9 hPa 3.1 m/s 0.0 mm 10.8° 1020.5 hPa 5.6 m/s 5.2 mm 9.8° 1020.9 hPa 2.6 m/s 0.0 mm 10.7° 1019.5 hPa 4.5 m/s 0.0 mm 9.0° 1021.1 hPa 3.0 m/s 11.1° 1020.8 hPa 3.9 m/s
04:00 9.6° 1019.5 hPa 6.5 m/s 0.0 mm 10.7° 1018.3 hPa 9.4 m/s 8.2 mm 10.9° 1019.8 hPa 5.6 m/s 0.0 mm 10.9° 1018.1 hPa 7.0 m/s 0.0 mm 8.6° 1019.7 hPa 6.2 m/s 10.2° 1019.1 hPa 6.6 m/s
07:00 8.0° 1019.6 hPa 7.6 m/s 2.8 mm 8.8° 1017.4 hPa 11.9 m/s 12.5 mm 9.2° 1019.8 hPa 9.2 m/s 0.6 mm 9.4° 1018.5 hPa 10.4 m/s 0.0 mm 6.6° 1019.9 hPa 5.5 m/s 9.3° 1019.6 hPa 8.3 m/s
10:00 8.7° 1020.7 hPa 8.3 m/s 0.0 mm 8.9° 1019.3 hPa 13.0 m/s 13.8 mm 9.8° 1021.2 hPa 8.9 m/s 0.8 mm 9.1° 1019.6 hPa 13.7 m/s 0.0 mm 7.8° 1021.3 hPa 6.7 m/s 9.0° 1021.5 hPa 8.6 m/s
13:00 10.1° 1020.9 hPa 9.4 m/s 0.0 mm 8.9° 1020.1 hPa 12.6 m/s 18.5 mm 11.4° 1021.0 hPa 12.9 m/s 0.0 mm 9.7° 1020.5 hPa 15.8 m/s 0.0 mm 10.0° 1021.0 hPa 5.6 m/s 11.7° 1021.7 hPa 9.6 m/s
16:00 10.0° 1021.4 hPa 9.1 m/s 0.0 mm 10.1° 1020.4 hPa 13.9 m/s 19.3 mm 10.7° 1021.2 hPa 12.9 m/s 0.0 mm 9.1° 1021.8 hPa 12.7 m/s 0.0 mm 9.6° 1021.5 hPa 5.4 m/s 11.2° 1022.4 hPa 11.7 m/s
19:00 9.1° 1022.5 hPa 9.1 m/s 0.0 mm 9.7° 1020.5 hPa 15.4 m/s 19.3 mm 9.9° 1022.0 hPa 13.8 m/s 0.0 mm 8.9° 1023.9 hPa 11.7 m/s 0.0 mm 9.0° 1022.5 hPa 5.3 m/s 9.9° 1022.1 hPa 10.9 m/s
22:00 8.5° 1023.8 hPa 9.4 m/s 0.0 mm 8.7° 1022.4 hPa 15.3 m/s 19.3 mm 9.2° 1023.4 hPa 14.0 m/s 0.0 mm 7.8° 1025.4 hPa 12.3 m/s 0.0 mm 8.4° 1024.1 hPa 5.8 m/s 9.4° 1023.9 hPa 11.2 m/s
 08:13     17:51    Daglengte: 9:38 Maandag 20 Jan
01:00 8.6° 1023.7 hPa 9.8 m/s 0.0 mm 8.6° 1022.5 hPa 15.2 m/s 19.3 mm 9.1° 1023.1 hPa 12.2 m/s 0.0 mm 8.6° 1025.2 hPa 12.1 m/s 0.0 mm 8.2° 1024.2 hPa 7.2 m/s 8.9° 1023.8 hPa 10.2 m/s
04:00 8.7° 1022.8 hPa 9.4 m/s 0.0 mm 8.5° 1021.6 hPa 15.8 m/s 19.3 mm 10.3° 1022.9 hPa 11.1 m/s 0.0 mm 7.8° 1023.6 hPa 8.6 m/s 8.7° 1023.2 hPa 11.5 m/s
07:00 8.3° 1023.3 hPa 10.6 m/s 0.0 mm 8.2° 1021.1 hPa 15.5 m/s 19.3 mm 8.8° 1023.6 hPa 14.3 m/s 0.0 mm 7.6° 1024.0 hPa 9.7 m/s 7.8° 1022.7 hPa 12.8 m/s
10:00 7.2° 1025.3 hPa 10.5 m/s 3.4 mm 6.9° 1022.0 hPa 16.3 m/s 19.6 mm 6.9° 1025.9 hPa 16.2 m/s 0.7 mm 6.7° 1026.6 hPa 9.2 m/s 6.8° 1022.9 hPa 15.1 m/s
13:00 7.6° 1024.9 hPa 11.0 m/s 8.0 mm 7.8° 1021.4 hPa 15.8 m/s 23.2 mm 8.1° 1025.2 hPa 16.9 m/s 5.4 mm 5.9° 1026.7 hPa 8.9 m/s 6.6° 1022.0 hPa 15.1 m/s
16:00 7.6° 1024.1 hPa 11.6 m/s 12.8 mm 9.2° 1020.1 hPa 16.9 m/s 31.1 mm 7.6° 1024.5 hPa 15.6 m/s 8.4 mm 6.2° 1025.4 hPa 10.6 m/s 8.9° 1021.4 hPa 14.3 m/s
19:00 7.1° 1024.4 hPa 11.8 m/s 15.8 mm 9.1° 1020.6 hPa 15.0 m/s 48.4 mm 10.1° 1024.8 hPa 17.3 m/s 11.0 mm 6.7° 1025.4 hPa 10.9 m/s 9.7° 1022.3 hPa 14.3 m/s
22:00 7.9° 1024.6 hPa 11.5 m/s 23.7 mm 10.8° 1019.2 hPa 16.3 m/s 80.6 mm 10.8° 1025.2 hPa 16.2 m/s 18.3 mm 7.6° 1025.6 hPa 10.2 m/s 11.5° 1023.1 hPa 11.4 m/s
 08:13     17:53    Daglengte: 9:40 Dinsdag 21 Jan
01:00 9.0° 1023.8 hPa 11.1 m/s 27.4 mm 11.6° 1018.0 hPa 12.9 m/s 112.8 mm 11.9° 1024.1 hPa 13.3 m/s 11.6 mm 8.5° 1025.8 hPa 9.5 m/s 12.7° 1022.1 hPa 13.7 m/s
04:00 10.7° 1024.3 hPa 11.7 m/s 51.3 mm 13.5° 1018.9 hPa 13.4 m/s 141.9 mm 11.8° 1024.8 hPa 14.9 m/s 5.9 mm 9.2° 1025.0 hPa 9.6 m/s 13.6° 1021.7 hPa 15.1 m/s
07:00 11.2° 1023.8 hPa 12.2 m/s 55.9 mm 13.4° 1018.5 hPa 14.6 m/s 155.1 mm 12.3° 1024.7 hPa 15.1 m/s 6.3 mm 9.8° 1024.3 hPa 9.6 m/s 13.6° 1021.4 hPa 15.9 m/s
10:00 11.0° 1023.6 hPa 11.0 m/s 80.7 mm 10.7° 1023.8 hPa 10.6 m/s 13.6° 1022.2 hPa 15.9 m/s 80.7 mm
13:00 11.4° 1023.3 hPa 11.5 m/s 84.1 mm 11.2° 1023.5 hPa 11.1 m/s 13.8° 1021.2 hPa 15.8 m/s 84.1 mm
16:00 11.5° 1022.6 hPa 10.8 m/s 87.9 mm 11.3° 1022.9 hPa 10.3 m/s 13.7° 1020.0 hPa 16.2 m/s 87.9 mm
19:00 11.7° 1022.0 hPa 10.1 m/s 95.5 mm 11.5° 1022.2 hPa 9.6 m/s 13.5° 1019.3 hPa 15.7 m/s 95.5 mm
22:00 11.3° 1021.9 hPa 7.9 m/s 109.0 mm 11.1° 1022.2 hPa 7.3 m/s 13.6° 1019.0 hPa 14.9 m/s 109.0 mm
 08:12     17:54    Daglengte: 9:42 Woensdag 22 Jan
01:00 10.9° 1021.8 hPa 5.5 m/s 117.0 mm 10.6° 1022.1 hPa 5.0 m/s 14.7° 1018.2 hPa 11.5 m/s 117.0 mm
04:00 10.0° 1021.2 hPa 4.1 m/s 121.6 mm 9.6° 1021.5 hPa 3.6 m/s 14.4° 1018.3 hPa 9.3 m/s 121.6 mm
07:00 9.2° 1020.6 hPa 2.9 m/s 125.1 mm 8.7° 1020.8 hPa 2.3 m/s 14.4° 1018.1 hPa 9.4 m/s 125.1 mm
10:00 11.3° 1020.9 hPa 3.0 m/s 127.7 mm 11.0° 1021.1 hPa 2.8 m/s 14.1° 1018.3 hPa 5.0 m/s 127.7 mm
13:00 13.4° 1021.1 hPa 3.3 m/s 129.5 mm 13.3° 1021.4 hPa 3.3 m/s 14.6° 1017.4 hPa 3.7 m/s 129.5 mm
16:00 12.7° 1019.9 hPa 4.1 m/s 133.6 mm 12.5° 1020.1 hPa 4.2 m/s 14.8° 1016.8 hPa 2.7 m/s 133.6 mm
19:00 11.8° 1018.8 hPa 4.8 m/s 136.4 mm 11.7° 1018.9 hPa 5.1 m/s 13.5° 1018.1 hPa 1.2 m/s 136.4 mm
22:00 10.6° 1020.0 hPa 3.6 m/s 138.6 mm 10.4° 1019.9 hPa 3.8 m/s 11.9° 1020.5 hPa 1.4 m/s 138.6 mm
 08:11     17:55    Daglengte: 9:44 Donderdag 23 Jan
01:00 9.4° 1021.0 hPa 2.4 m/s 138.6 mm 9.2° 1020.9 hPa 2.5 m/s 11.4° 1022.2 hPa 1.7 m/s 138.6 mm
04:00 8.9° 1021.4 hPa 2.1 m/s 138.6 mm 8.8° 1021.2 hPa 2.1 m/s 10.9° 1022.8 hPa 1.7 m/s 138.6 mm
07:00 8.5° 1021.8 hPa 1.7 m/s 138.6 mm 8.3° 1021.6 hPa 1.7 m/s 10.4° 1023.9 hPa 1.7 m/s 138.6 mm
10:00 11.3° 1022.2 hPa 2.2 m/s 138.6 mm 11.3° 1021.9 hPa 2.2 m/s 11.6° 1025.3 hPa 1.2 m/s 138.6 mm
13:00 14.3° 1022.5 hPa 2.6 m/s 138.6 mm 14.3° 1022.2 hPa 2.8 m/s 14.5° 1025.3 hPa 0.4 m/s 138.6 mm
16:00 13.2° 1022.1 hPa 1.7 m/s 138.6 mm 13.1° 1021.9 hPa 1.7 m/s 14.4° 1024.3 hPa 1.3 m/s 138.6 mm
19:00 12.0° 1021.9 hPa 0.6 m/s 138.6 mm 11.9° 1021.6 hPa 0.6 m/s 13.0° 1025.1 hPa 1.1 m/s 138.6 mm
22:00 9.2° 1022.2 hPa 1.2 m/s 138.6 mm 8.8° 1021.9 hPa 1.1 m/s 12.6° 1025.7 hPa 1.5 m/s 138.6 mm
 08:10     17:56    Daglengte: 9:46 Vrijdag 24 Jan
01:00 6.3° 1022.5 hPa 1.7 m/s 138.6 mm 5.8° 1022.2 hPa 1.7 m/s 11.8° 1025.5 hPa 1.7 m/s 138.6 mm
04:00 5.5° 1021.9 hPa 1.8 m/s 138.6 mm 4.9° 1021.7 hPa 1.9 m/s 11.5° 1024.7 hPa 1.8 m/s 138.6 mm
07:00 4.6° 1021.5 hPa 2.0 m/s 138.6 mm 4.0° 1021.1 hPa 2.0 m/s 11.0° 1025.4 hPa 2.0 m/s 138.6 mm
10:00 9.3° 1021.7 hPa 2.4 m/s 138.6 mm 9.1° 1021.4 hPa 2.4 m/s 11.7° 1025.8 hPa 2.0 m/s 138.6 mm
13:00 14.2° 1021.9 hPa 2.6 m/s 138.6 mm 14.2° 1021.6 hPa 2.8 m/s 14.3° 1025.5 hPa 0.8 m/s 138.6 mm
16:00 12.0° 1021.7 hPa 2.4 m/s 138.6 mm 11.8° 1021.5 hPa 2.4 m/s 14.5° 1023.7 hPa 1.9 m/s 138.6 mm
19:00 9.7° 1021.8 hPa 1.9 m/s 138.6 mm 9.4° 1021.5 hPa 2.0 m/s 12.9° 1024.6 hPa 1.4 m/s 138.6 mm
22:00 7.5° 1022.5 hPa 1.9 m/s 138.6 mm 7.1° 1022.2 hPa 2.0 m/s 12.2° 1025.7 hPa 1.2 m/s 138.6 mm
 08:10     17:57    Daglengte: 9:47 Zaterdag 25 Jan
01:00 5.4° 1023.2 hPa 2.0 m/s 138.6 mm 4.8° 1023.0 hPa 2.0 m/s 11.6° 1026.0 hPa 1.8 m/s 138.6 mm
04:00 4.7° 1023.1 hPa 1.9 m/s 138.6 mm 4.2° 1022.9 hPa 1.9 m/s 10.9° 1025.8 hPa 1.5 m/s 138.6 mm
07:00 4.1° 1023.0 hPa 1.9 m/s 138.6 mm 3.5° 1022.7 hPa 1.9 m/s 10.5° 1026.3 hPa 1.7 m/s 138.6 mm
13:00 12.2° 1024.0 hPa 1.9 m/s 138.6 mm 11.9° 1023.7 hPa 2.0 m/s 15.4° 1026.8 hPa 0.7 m/s 138.6 mm
19:00 8.6° 1023.7 hPa 1.4 m/s 138.6 mm 8.1° 1023.5 hPa 1.4 m/s 14.2° 1026.4 hPa 1.9 m/s 138.6 mm
 08:09     17:59    Daglengte: 9:50 Zondag 26 Jan
01:00 5.1° 1024.6 hPa 1.5 m/s 138.8 mm 4.3° 1024.3 hPa 1.4 m/s 13.3° 1028.1 hPa 2.3 m/s 138.8 mm
07:00 5.5° 1025.2 hPa 1.6 m/s 139.2 mm 4.8° 1025.0 hPa 1.4 m/s 13.0° 1027.6 hPa 3.2 m/s 139.2 mm
13:00 12.8° 1026.5 hPa 1.6 m/s 139.2 mm 12.6° 1026.2 hPa 1.4 m/s 15.5° 1029.4 hPa 3.9 m/s 139.2 mm
19:00 9.0° 1025.1 hPa 2.0 m/s 139.2 mm 8.5° 1024.8 hPa 1.9 m/s 15.0° 1027.9 hPa 3.3 m/s 139.2 mm
 08:08     18:00    Daglengte: 9:52 Maandag 27 Jan
01:00 5.8° 1025.8 hPa 2.0 m/s 139.2 mm 5.1° 1025.6 hPa 2.0 m/s 13.5° 1028.1 hPa 1.5 m/s 139.2 mm
07:00 4.5° 1025.0 hPa 1.9 m/s 139.2 mm 3.7° 1024.8 hPa 1.9 m/s 13.2° 1027.0 hPa 1.6 m/s 139.2 mm
13:00 15.8° 1026.9 hPa 1.3 m/s 139.2 mm 15.8° 1026.9 hPa 1.3 m/s 139.3 mm
19:00 16.2° 1024.7 hPa 1.7 m/s 139.3 mm 16.2° 1024.7 hPa 1.7 m/s 139.3 mm
 08:07     18:01    Daglengte: 9:54 Dinsdag 28 Jan
01:00 11.5° 1022.2 hPa 1.3 m/s 0.2 mm
07:00 10.9° 1021.2 hPa 1.6 m/s 0.1 mm
13:00 14.0° 1021.6 hPa 1.0 m/s 0.0 mm
19:00 12.1° 1020.5 hPa 1.9 m/s 0.0 mm
 08:06     18:02    Daglengte: 9:56 Woensdag 29 Jan
01:00 11.2° 1020.9 hPa 2.0 m/s 0.0 mm
07:00 10.7° 1019.5 hPa 1.8 m/s 0.0 mm
13:00 13.9° 1019.1 hPa 2.9 m/s 0.3 mm
19:00 12.4° 1018.0 hPa 3.5 m/s 0.2 mm
 08:05     18:04    Daglengte: 9:59 Donderdag 30 Jan
01:00 11.6° 1018.2 hPa 2.8 m/s 0.1 mm
07:00 11.0° 1016.7 hPa 2.2 m/s 1.1 mm
13:00 14.1° 1017.3 hPa 3.3 m/s 0.3 mm
19:00 12.1° 1017.4 hPa 2.5 m/s 0.0 mm
 08:04     18:05    Daglengte: 10:01 Vrijdag 31 Jan
01:00 11.0° 1018.5 hPa 1.4 m/s 0.2 mm
07:00 10.1° 1017.6 hPa 1.6 m/s 0.3 mm
13:00 12.8° 1018.2 hPa 0.9 m/s 0.6 mm
19:00 11.2° 1017.8 hPa 1.5 m/s 0.4 mm
 08:03     18:06    Daglengte: 10:03 Zaterdag 01 Feb
01:00 10.3° 1018.9 hPa 1.9 m/s 0.2 mm
07:00 9.7° 1018.5 hPa 2.0 m/s 0.3 mm
13:00 12.9° 1019.6 hPa 1.6 m/s 0.0 mm
19:00 11.3° 1019.9 hPa 1.5 m/s 0.0 mm
 08:02     18:07    Daglengte: 10:05 Zondag 02 Feb
01:00 10.1° 1022.0 hPa 1.7 m/s 0.1 mm
FMI Hirlam - 7.5 km EWN WRFDA - 12 km DWD ICON - 7 km GFS - 25 km Basiskaart






























































Updatetijd (Europe/Amsterdam) Resolutie Lengte Stap
FMI Hirlam 06:00, 12:00, 18:00, 00:00 7.5 km 49h 1h
EWN WRFDA 02:30, 08:30, 14:30, 20:30 12 km 73h 1h
DWD ICON 04:45, 10:45, 16:45, 22:45 7 km 75h 1h
GFS 01:30, 07:30, 13:30, 19:30 25 km 237h 3h
30+ mm
25-30 mm
20-25 mm
15-20 mm
10-15 mm
6-10 mm
4-6 mm
2-4 mm
1-2 mm
0.5-1 mm
0.2-0.5 mm
0.1-0.2 mm
30+ mm
25-30 mm
20-25 mm
15-20 mm
10-15 mm
6-10 mm
4-6 mm
2-4 mm
1-2 mm
0.5-1 mm
0.2-0.5 mm
0.1-0.2 mm
Sneeuwval
Natte sneeuw
Hagel
Vorst
30+ mm
25-30 mm
20-25 mm
15-20 mm
10-15 mm
6-10 mm
4-6 mm
2-4 mm
1-2 mm
0.5-1 mm
0.2-0.5 mm
0.1-0.2 mm
Sneeuwval
Natte sneeuw
Hagel
Vorst
Onweer
50 mm
40 mm
30 mm
26 mm
22 mm
18 mm
14 mm
10 mm
9 mm
8 mm
7 mm
6 mm
5 mm
4.5 mm
4 mm
3.5 mm
3 mm
2.5 mm
2 mm
1.5 mm
1 mm
0.8 mm
0.6 mm
0.4 mm
0.2 mm
0.05 mm
35°
30°
25°
20°
15°
10°
-5°
-10°
-15°
-20°
-25°
-30°
-35°
120> km/h
105 km/h
90 km/h
75 km/h
60 km/h
50 km/h
40 km/h
30 km/h
20 km/h
10 km/h
0 km/h
2600 J/kg
2400 J/kg
2200 J/kg
2000 J/kg
1800 J/kg
1600 J/kg
1400 J/kg
1200 J/kg
1000 J/kg
800 J/kg
600 J/kg
400 J/kg
200 J/kg
70 dBZ
65 dBZ
60 dBZ
55 dBZ
50 dBZ
45 dBZ
40 dBZ
35 dBZ
30 dBZ
25 dBZ
20 dBZ
15 dBZ
10 dBZ
5 dBZ
-1 K
-2 K
-3 K
-4 K
-5 K
-6 K
-7 K
-8 K
-9 K
950 m²/s²
900 m²/s²
850 m²/s²
800 m²/s²
750 m²/s²
700 m²/s²
650 m²/s²
600 m²/s²
550 m²/s²
500 m²/s²
450 m²/s²
400 m²/s²
350 m²/s²
300 m²/s²
250 m²/s²
200 m²/s²
150 m²/s²
100 m²/s²
46 m/s
44 m/s
42 m/s
40 m/s
38 m/s
36 m/s
34 m/s
32 m/s
30 m/s
28 m/s
26 m/s
24 m/s
22 m/s
20 m/s
16 m/s
12 m/s
8 m/s
4 m/s
30 m/s
28 m/s
26 m/s
24 m/s
22 m/s
20 m/s
18 m/s
16 m/s
14 m/s
12 m/s
10 m/s
8 m/s
6 m/s
4 m/s
2 m/s
3.0
2.8
2.6
2.4
2.2
2.0
1.8
1.6
1.4
1.2
1.0
0.8
0.6
0.4
0.2
15
14
13
12
11
10
9
8
7
6
5
4
3
2
1
90%
80%
70%
60%
50%
40%
30%
20%
10%
42
40
38
36
34
32
30
28
26
24
22
20
18
16
14
12
90+ cm
80-90 cm
70-80 cm
60-70 cm
50-60 cm
40-50 cm
30-40 cm
20-30 cm
10-20 cm
1-10 cm
Sneeuwval
Natte sneeuw
Regen
>120 mm
115 mm
110 mm
105 mm
100 mm
95 mm
90 mm
85 mm
80 mm
75 mm
70 mm
65 mm
60 mm
55 mm
50 mm
45 mm
45 mm
40 mm
35 mm
30 mm
25 mm
20 mm
15 mm
10 mm
5 mm
0.1 mm
960 hPa
880 hPa
800 hPa
720 hPa
640 hPa
560 hPa
584 gpdm
568 gpdm
552 gpdm
536 gpdm
520 gpdm
504 gpdm
488 gpdm
Extreem zwaar Noodweer Kans op onweer
15% 15% 5% 50% 15%

Dag




Kaart






35°
30°
25°
20°
15°
10°
-5°
-10°
-15°
-20°
-25°
-30°
-35°
120> km/h
105 km/h
90 km/h
75 km/h
60 km/h
50 km/h
40 km/h
30 km/h
20 km/h
10 km/h
0 km/h
Extreem zwaar Noodweer Kans op onweer
15% 15% 5% 50% 15%
>120 mm
115 mm
110 mm
105 mm
100 mm
95 mm
90 mm
85 mm
80 mm
75 mm
70 mm
65 mm
60 mm
55 mm
50 mm
45 mm
45 mm
40 mm
35 mm
30 mm
25 mm
20 mm
15 mm
10 mm
5 mm
0.1 mm
Onweer risico kaarten - De groene en gele kleur geeft de kans op onweer aan binnen 40 km van een punt. Oranje, rood en violet hebben hetzelfde niveau zoals je het ziet op estofex.org waaronder ook de kans op hagel en supercells.

dBZ - dBZ staat voor decibel ten opzichte van Z.

Cape - Convective available potential energy (CAPE), is de totale hoeveelheid energie die een luchtpakketje nodig heeft om zover mogelijk te stijgen in de atmosfeer.

K Index - K-Index wordt berekend door de Vertical Totals (VT) en het verschil tussen de 850 hPa temperatuur en de 700 hPa dauwpuntsdepressie (Tdd 700) bij elkaar op te tellen.

TT Index - Convectie index wordt gebruikt voor het voorspellen van zware buien of onweer.

WRF - The Weather Research and Forecasting (WRF) is een volgende generatie mesoscale numeriek weersvoorspelling systeem ontworpen om zowel de operationele planning als het atmosferisch onderzoek te dienen. WRF is a cooperatie tussen het National Center for Atmospheric Research (NCAR), National Centers for Environmental Prediction (NCEP), Forecast Systems Laboratory (FSL), Air Force Weather Agency (AFWA), Naval Research Laboratory, University of Oklahoma, en de Federal Aviation Administration (FAA). Deze software draait op onze server.

WRFDA - Een meer geavanceerde versie van WRF

Arome - Het 2.5 km Arome model. Verzorgd door het Noors Meteorologisch Instituut.

MET Norway - De proff-default 4km meteorological data is een beste keus selectie van meteorologische modellen gebruikt door met.no die zijn ge´nterpoleerd tot een gemeenschappelijke dataset. Verzorgd door het Noorse Meteorologisch Instituut.

SMHI - Het Hirlam model verzorgd door het Zweeds meteorologisch instituut.

FMI - Het Hirlam model verzorgd door het Fins meteorologisch instituut. Dekking alleen Finland.

GFS - Het Global Forecast Systeem (GFS) is een wereldwijd numerieke weersvoorspelling computermodel, gerund door NOAA.

GEM-GDPS - Het GEM-GDPS is a wereldwijd numeriek weersvoorspelling computermodel verzorgd door het Canadees Meteorologisch Centrum.

Credits/Info: Dank aan Stefan Gofferje van sääkeskus.fi voor enkele formules van GrADS. Info: Wikipedia.

Betrouwbaarheid van de verwachting

NB! 2015-03-29: Rebuilding the accuracy-test!

EWNACC
Day 1 Good forecasts

Dag 1 Tmax

Dag 2 Tmax

Geladen verwachtingen TOP 50

Totaal geladen verwachtingen:
Plaats Latitude Longitude Verwachtingen Plaats Latitude Longitude Verwachtingen